[[{"header":{"parameterUnit":"m.s-1","parameterCategory":1,"la1":30.2991,"la2":30.254,"lo1":-89.0895,"lo2":-89.0444,"dy":0.0017,"dx":0.0017,"nx":28,"ny":28,"refTime":"2025-09-08T21:00:00:Z","depth":0,"parameterNumber":2,"parameterNumberName":"U-component_of_WINDS"},"data":[0,0,0,0,0,0,0,0,0,0,0,0,0,0,0,0,0,0,0,0,0,0,0,0,0,0,0,0,0,0,0,0,0,0,0,0,0,0,0,0,0,0,0,0,0,0,0,0,0,0,0,0,0,0,0,0,0,0,-5.9416,-5.9416,0,-5.9427,-5.9427,-5.9427,-5.9252,-5.9247,-5.9243,-5.9238,-5.9248,-5.9252,-5.9257,0,0,0,0,0,0,0,0,0,0,0,0,0,-5.9243,-5.9247,-5.9416,-5.9416,-5.9416,-5.9427,-5.9427,-5.9427,-5.9253,-5.9247,-5.9242,-5.9236,-5.9246,-5.9252,-5.9257,0,0,0,0,0,0,0,0,0,0,0,0,0,-5.9292,-5.9248,-5.9416,-5.9331,-5.9323,-5.9427,-5.9427,-5.9427,-5.9254,-5.9247,-5.924,-5.9233,-5.9244,-5.9251,-5.9258,-5.9443,0,0,-5.9279,-5.9282,0,0,0,0,0,0,0,0,-5.929,-5.9299,-5.9343,-5.9337,-5.9329,-5.9331,-5.9369,-5.9432,-5.9256,-5.928,-5.9238,-5.923,-5.9281,-5.9284,-5.9302,-5.9443,-5.9444,-5.928,-5.9284,-5.9287,-5.9289,0,0,0,0,0,0,0,-5.9286,-5.9297,-5.942,-5.9344,-5.9335,-5.9291,-5.929,-5.938,-5.932,-5.9278,-5.9265,-5.9269,-5.9275,-5.9296,-5.9301,-5.9444,-5.928,-5.9286,-5.929,-5.9293,-5.9735,-5.9742,0,0,0,0,0,0,-5.9295,-5.9296,-5.942,-5.942,-5.9291,-5.93,-5.9299,-5.9337,-5.9319,-5.9309,-5.9275,-5.9261,-5.9287,-5.9293,-5.9301,-5.9513,-5.9287,-5.9294,-5.9298,-5.9728,-5.9737,-5.9745,0,0,0,0,0,0,-5.9292,-5.9308,-5.9419,-5.9355,-5.9365,-5.9311,-5.9355,-5.9341,-5.9361,-5.9317,-5.9305,-5.9307,-5.9282,-5.9291,-5.9408,-5.9511,-5.9297,-5.9303,-5.9719,-5.9731,-5.9741,-5.9943,0,0,0,0,0,0,-5.9288,-5.9308,-5.9378,-5.9358,-5.937,-5.9528,-5.9361,-5.9347,-5.9374,-5.9355,-5.9343,-5.9334,-5.9277,-5.9399,-5.9415,-5.9517,-5.9308,-5.9709,-5.9724,-5.9737,-5.9927,-5.996,-5.9988,0,0,0,0,0,-5.9282,-5.9434,-5.9382,-5.9398,-5.9456,-5.9534,-5.9541,-5.9472,-5.9383,-5.9452,-5.9424,-5.9335,-5.9499,-5.9412,-5.9429,-5.9535,-5.9702,-5.972,-5.9736,-5.9913,-5.9953,-5.9987,0,0,0,0,0,0,-5.9467,-5.943,-5.9372,-5.9522,-5.9533,-5.9505,-5.959,-5.9518,-5.9553,-5.9535,-5.9447,-5.9446,-5.9578,-5.9568,-5.9473,-5.9712,-5.9584,-5.9606,-5.9713,-5.9751,-5.9781,-5.9779,-5.9314,0,0,0,0,0,-5.9526,-5.9593,-5.9557,-5.9693,-5.9701,-5.9646,-5.9677,-5.9623,-5.9631,-5.9634,-5.9614,-5.9624,-5.9677,-5.9714,-5.9761,-5.9926,-5.9919,-6.0007,-6.0037,-6.0063,-6.0081,-6.0165,-6.0203,-5.9801,-5.9801,-5.9801,0,0,-5.9647,-5.9635,-5.9682,-5.973,-5.9731,-5.9802,-5.965,-5.9732,-5.9782,-5.9646,-5.9755,-5.9742,-5.9747,-5.9889,-5.995,-5.9885,-6.0191,-6.0084,-6.0105,-6.0109,-6.0187,-6.0225,-6.0259,-5.9813,-5.981,-5.9809,0,0,-5.9902,-5.9902,-6.0014,-6.0019,-6.0024,-5.9986,-6.0014,-5.9997,-5.9982,-6.0091,-5.999,-6.0049,-6.0144,-6.0151,-6.0167,-6.0427,-6.0345,-6.0445,-6.0604,-6.0687,-6.0719,-6.0746,-6.0836,-6.087,-6.0464,-6.0465,-6.0465,0,-6.0052,-6.0154,-6.008,-6.0168,-6.0191,-6.0072,-6.0184,-6.0193,-6.0213,-6.0231,-6.0159,-6.0274,-6.0269,-6.041,-6.0473,-6.0492,-6.0518,-6.0444,-6.072,-6.0747,-6.0772,-6.0857,-6.0891,-6.0476,-6.0475,-6.0474,-6.0473,0,-6.0336,-6.0409,-6.0499,-6.0522,-6.0555,-6.0656,-6.0596,-6.0638,-6.0583,-6.0553,-6.0664,-6.0655,-6.0697,-6.0727,-6.0673,-6.086,-6.0819,-6.0736,-6.0604,-6.0823,-6.0901,-6.0933,-6.0493,-6.0489,-6.0485,-6.0483,0,0,-6.0706,-6.0688,-6.0722,-6.073,-6.0727,-6.0782,-6.0876,-6.0918,-6.0955,-6.0974,-6.1049,-6.1132,-6.1054,-6.1073,-6.1019,-6.1093,-6.1297,-6.0999,-6.0998,-6.1052,-6.1499,-6.156,-6.1599,-6.1244,-6.125,-6.1255,-6.1498,0,-6.0952,-6.1112,-6.1048,-6.1213,-6.1278,-6.1167,-6.1249,-6.1256,-6.1231,-6.1282,-6.1253,-6.1313,-6.1207,-6.1217,-6.1286,-6.1258,-6.1385,-6.124,-6.1311,-6.1315,-6.131,-6.164,-6.1705,-6.1934,-6.1528,-6.1533,-6.1537,0,-6.126,-6.1291,-6.1463,-6.1448,-6.1473,-6.1548,-6.158,-6.1631,-6.1637,-6.1613,-6.1635,-6.1565,-6.1655,-6.1528,-6.165,-6.1553,-6.1579,-6.157,-6.1577,-6.1578,-6.1437,-6.1647,-6.2006,-6.2039,-6.1585,-6.1581,-6.1578,0,-6.1509,-6.1594,-6.1707,-6.1718,-6.1704,-6.1759,-6.1756,-6.1755,-6.1783,-6.1812,-6.183,-6.1869,-6.189,-6.1922,-6.1864,-6.1777,-6.1994,-6.1862,-6.1975,-6.1977,-6.2022,-6.2019,-6.2387,-6.2046,-6.2045,-6.2045,-6.2044,0,-6.1788,-6.1896,-6.1818,-6.1887,-6.2005,-6.1932,-6.205,-6.2035,-6.2035,-6.2098,-6.2006,-6.2067,-6.1988,-6.2042,-6.1998,-6.2105,-6.2116,-6.2098,-6.2084,-6.2104,-6.2106,-6.2117,-6.2098,-6.2054,-6.2052,-6.205,-6.2048,0,-6.2084,-6.2037,-6.2152,-6.213,-6.2127,-6.2215,-6.2195,-6.2258,-6.2227,-6.2308,-6.2323,-6.2274,-6.2333,-6.2279,-6.2336,-6.2305,-6.2447,-6.2412,-6.2445,-6.2434,-6.2548,-6.2537,-6.2933,-6.298,-6.2612,-6.2616,-6.2619,0,-6.2264,-6.2344,-6.2331,-6.2367,-6.237,-6.243,-6.2458,-6.239,-6.2424,-6.2437,-6.2497,-6.2548,-6.2584,-6.2683,-6.2652,-6.2695,-6.2658,-6.2794,-6.2663,-6.268,-6.2656,-6.265,-6.2657,-6.2819,-6.2823,-6.2827,-6.283,0,-6.2586,-6.2559,-6.2604,-6.2643,-6.268,-6.2706,-6.2725,-6.276,-6.269,-6.2732,-6.2791,-6.282,-6.2877,-6.2928,-6.2961,-6.2956,-6.2881,-6.2872,-6.2899,-6.2919,-6.2933,-6.2924,-6.2514,-6.2862,-6.2859,-6.2856,-6.2855,-6.2853,-6.2827,-6.2893,-6.2894,-6.2947,-6.2955,-6.2975,-6.3032,-6.3009,-6.3057,-6.3098,-6.3055,-6.3126,-6.3129,-6.3165,-6.317,-6.3224,-6.3167,-6.3208,-6.3217,-6.3228,-6.3243,-6.2928,-6.323,-6.3229,-6.3228,-6.3228,-6.3227,0,-6.3142,-6.3137,-6.3188,-6.3217,-6.326,-6.3188,-6.3205,-6.3244,-6.3308,-6.3318,-6.3356,-6.3424,-6.3473,-6.3447,-6.3489,-6.3537,-6.3504,-6.355,-6.3544,-6.3544,-6.3293,-6.3264,-6.3576,-6.3576,-6.3576,-6.3576,-6.3576,-6.3576,-6.331,-6.3417,-6.339,-6.3499,-6.3494,-6.3563,-6.3579,-6.3596,-6.3603,-6.3683,-6.3723,-6.3706,-6.3701,-6.3743,-6.3784,-6.3775,-6.3794,-6.3852,-6.3831,-6.3596,-6.3562,-6.3529,-6.35,-6.3858,-6.3858,-6.4076,-6.4078,-6.408]},{"header":{"parameterUnit":"m.s-1","parameterCategory":1,"la1":30.2991,"la2":30.254,"lo1":-89.0895,"lo2":-89.0444,"dy":0.0017,"dx":0.0017,"nx":28,"ny":28,"refTime":"2025-09-08T21:00:00:Z","depth":0,"parameterNumber":3,"parameterNumberName":"V-component_of_WINDS"},"data":[0,0,0,0,0,0,0,0,0,0,0,0,0,0,0,0,0,0,0,0,0,0,0,0,0,0,0,0,0,0,0,0,0,0,0,0,0,0,0,0,0,0,0,0,0,0,0,0,0,0,0,0,0,0,0,0,0,0,0.2081,0.208,0,0.1993,0.1992,0.1991,0.1892,0.189,0.1889,0.1887,0.1793,0.1792,0.1791,0,0,0,0,0,0,0,0,0,0,0,0,0,0.2159,0.2158,0.2081,0.208,0.2079,0.1993,0.1992,0.1991,0.1892,0.189,0.1888,0.1887,0.1793,0.1792,0.179,0,0,0,0,0,0,0,0,0,0,0,0,0,0.2104,0.2158,0.2081,0.2019,0.2013,0.1993,0.1992,0.199,0.1892,0.189,0.1888,0.1886,0.1794,0.1792,0.179,0.1823,0,0,0.1785,0.1784,0,0,0,0,0,0,0,0,0.2107,0.2101,0.2029,0.2023,0.2016,0.1951,0.1985,0.1934,0.1893,0.1938,0.1887,0.1885,0.1847,0.1841,0.1829,0.1819,0.1815,0.1785,0.1784,0.1783,0.1783,0,0,0,0,0,0,0,0.2111,0.2104,0.2046,0.2028,0.202,0.1995,0.1984,0.1975,0.1906,0.1934,0.1926,0.1918,0.1843,0.1831,0.1826,0.1813,0.1785,0.1783,0.1782,0.1782,0.1827,0.1829,0,0,0,0,0,0,0.2125,0.2108,0.2049,0.2043,0.2057,0.1995,0.1984,0.1974,0.1906,0.1893,0.192,0.1913,0.1835,0.1828,0.1822,0.1858,0.1783,0.1781,0.178,0.1825,0.1828,0.183,0,0,0,0,0,0,0.2127,0.212,0.2052,0.2074,0.2063,0.1996,0.1986,0.1974,0.1961,0.1895,0.1882,0.192,0.1833,0.1825,0.1824,0.1853,0.1781,0.1779,0.1822,0.1826,0.1829,0.1928,0,0,0,0,0,0,0.213,0.2122,0.2134,0.2075,0.2062,0.2057,0.1988,0.1973,0.1959,0.195,0.1892,0.188,0.1831,0.1828,0.1823,0.1849,0.1778,0.1819,0.1824,0.1828,0.1922,0.1934,0.1945,0,0,0,0,0,0.2133,0.2164,0.2136,0.2129,0.2077,0.2059,0.2052,0.1996,0.1962,0.1974,0.1931,0.1882,0.1851,0.1828,0.1822,0.1848,0.1817,0.1823,0.1828,0.1917,0.1932,0.1945,0,0,0,0,0,0,0.2227,0.2155,0.2123,0.2136,0.2105,0.2043,0.2056,0.2013,0.1989,0.1982,0.1911,0.1899,0.1907,0.1877,0.1854,0.1877,0.1827,0.1831,0.1897,0.1911,0.1922,0.1929,0.1776,0,0,0,0,0,0.225,0.2243,0.218,0.2198,0.2184,0.2123,0.2113,0.2073,0.2037,0.2022,0.1979,0.1945,0.1927,0.1917,0.1897,0.1917,0.1903,0.1932,0.1944,0.1953,0.1958,0.1967,0.198,0.1847,0.1847,0.1847,0,0,0.2296,0.2256,0.2256,0.2216,0.2187,0.218,0.2112,0.2108,0.2102,0.2021,0.2019,0.1987,0.1943,0.1954,0.1956,0.1929,0.1992,0.196,0.1968,0.1967,0.1974,0.1986,0.1998,0.185,0.185,0.1849,0,0,0.2378,0.2347,0.2359,0.2332,0.2289,0.2249,0.2252,0.2196,0.2172,0.217,0.2109,0.21,0.2071,0.2044,0.2026,0.2099,0.2053,0.2094,0.2155,0.2165,0.2175,0.2184,0.2211,0.2222,0.2099,0.2099,0.2099,0,0.244,0.2429,0.237,0.237,0.2355,0.2283,0.2295,0.2271,0.2224,0.2214,0.2185,0.2148,0.2114,0.2118,0.2136,0.2123,0.2125,0.2101,0.2179,0.2187,0.2194,0.2219,0.223,0.2104,0.2104,0.2103,0.2103,0,0.2509,0.2502,0.2517,0.2476,0.2462,0.2468,0.2409,0.2402,0.2363,0.2325,0.2324,0.2281,0.2251,0.2249,0.221,0.2248,0.2232,0.2192,0.214,0.2214,0.2236,0.2245,0.2112,0.211,0.2108,0.2107,0,0,0.2647,0.2574,0.2581,0.2562,0.2511,0.2504,0.2506,0.248,0.2475,0.2445,0.2446,0.2424,0.2387,0.2366,0.2324,0.2332,0.2395,0.2291,0.2288,0.2312,0.2434,0.2466,0.2478,0.2364,0.2365,0.2366,0.2438,0,0.272,0.2722,0.267,0.2686,0.268,0.2612,0.2614,0.2583,0.2548,0.2536,0.2497,0.2483,0.2434,0.2422,0.2428,0.2386,0.2418,0.238,0.2363,0.2363,0.2377,0.2489,0.2522,0.2592,0.2447,0.2448,0.2449,0,0.2805,0.2783,0.28,0.2749,0.2744,0.2747,0.272,0.2709,0.2672,0.2646,0.2625,0.2577,0.2575,0.2526,0.2523,0.2498,0.2488,0.2467,0.2468,0.2465,0.2411,0.249,0.2613,0.2624,0.2462,0.2461,0.246,0,0.2906,0.2879,0.2886,0.2872,0.2813,0.2817,0.2792,0.2753,0.2741,0.2716,0.2707,0.2681,0.2668,0.2649,0.2595,0.2564,0.2598,0.2544,0.2576,0.2578,0.2587,0.2587,0.2711,0.258,0.2579,0.2579,0.2579,0,0.2994,0.3007,0.2931,0.2936,0.2948,0.2887,0.2901,0.2869,0.2835,0.2832,0.2771,0.2768,0.2697,0.2687,0.2644,0.2649,0.2642,0.2621,0.261,0.2627,0.263,0.262,0.2614,0.2582,0.2581,0.2581,0.258,0,0.3109,0.3059,0.3062,0.3006,0.2993,0.3005,0.2956,0.2958,0.2919,0.2916,0.2911,0.2851,0.2836,0.278,0.275,0.2722,0.274,0.2717,0.2754,0.2746,0.2782,0.278,0.2905,0.2918,0.2778,0.2779,0.278,0,0.3168,0.3177,0.3124,0.3118,0.3096,0.3087,0.3075,0.3016,0.3005,0.2965,0.2971,0.2951,0.2932,0.2911,0.2863,0.2841,0.2818,0.2863,0.2814,0.2831,0.2819,0.282,0.2821,0.2874,0.2876,0.2877,0.2878,0,0.328,0.3256,0.3241,0.3219,0.3207,0.3186,0.3161,0.316,0.3093,0.3085,0.3069,0.3055,0.3026,0.3007,0.2977,0.295,0.2903,0.2894,0.2901,0.2919,0.294,0.293,0.2784,0.2892,0.289,0.2889,0.2889,0.2888,0.337,0.3375,0.3339,0.3325,0.3301,0.328,0.3279,0.3242,0.3229,0.3202,0.3167,0.3156,0.3119,0.3074,0.3051,0.3041,0.3015,0.3024,0.3026,0.303,0.3039,0.2941,0.3035,0.3034,0.3034,0.3033,0.3033,0,0.348,0.3453,0.3442,0.341,0.34,0.3359,0.3329,0.3323,0.3315,0.3285,0.3269,0.3252,0.3233,0.3186,0.3162,0.3164,0.3142,0.316,0.3159,0.3154,0.3063,0.306,0.3178,0.3178,0.3178,0.3178,0.3178,0.3178,0.3536,0.3543,0.3514,0.3509,0.3482,0.3473,0.346,0.344,0.3416,0.34,0.3386,0.3355,0.3318,0.3292,0.3273,0.3259,0.3254,0.3279,0.3259,0.3174,0.316,0.3147,0.3145,0.3278,0.3279,0.3351,0.3352,0.3352]}]]